Regional Weather Roundup
Issued by NWS

Home | Current Version | Previous Version | Graphics & Text | Print | Product List | Glossary On
Versions: 1 2 3 4 5 6 7 8 9 10 11 12 13 14 15 16 17 18 19 20 21 22 23 24 25 26 27 28 29 30 31 32 33 34 35 36 37 38 39 40 41 42 43 44 45 46 47 48 49 50
000
ASUS45 KCYS 270010
RWRWY

WYOMING REGIONAL WEATHER ROUNDUP
NATIONAL WEATHER SERVICE CHEYENNE WY
600 PM MDT TUE MAY 26 2015

NOTE:  "FAIR" INDICATES FEW OR NO CLOUDS BELOW 12,000 FEET
WITH NO SIGNIFICANT WEATHER AND/OR OBSTRUCTIONS TO VISIBILITY.

WYZ001-270100-
YELLOWSTONE NATIONAL PARK

CITY           SKY/WX    TMP DP  RH WIND       PRES   REMARKS
LK YELLOWSTONE   N/A     44  37  76 E3        30.14S
6HR MIN TEMP:  43; 6HR MAX TEMP:  52; 6HR PCP:  0.03;

W YELLOWSTONE  NOT AVBL

$$
WYZ002>013-054>058-071-098>099-270100-
NORTHERN WYOMING

CITY           SKY/WX    TMP DP  RH WIND       PRES   REMARKS
JACKSON        MOSUNNY   50  43  76 S7        30.08F
CODY           CLOUDY    55  46  71 N7        29.98R
GREYBULL       PTSUNNY   66  47  50 NW29G40   29.91R
6HR MIN TEMP:  65; 6HR MAX TEMP:  76;

WORLAND        FAIR      69  45  41 SW6       29.90S
6HR MIN TEMP:  66; 6HR MAX TEMP:  70;

SHERIDAN       FAIR      65  45  48 CALM      29.92F
6HR MIN TEMP:  62; 6HR MAX TEMP:  70; 6HR PCP: TRACE;

BUFFALO        FAIR      63  44  50 W10       29.96F
6HR MIN TEMP:  57; 6HR MAX TEMP:  67; 6HR PCP: TRACE;

GILLETTE         N/A     62  54  74 E6        29.96R THUNDER
6HR MIN TEMP:  59; 6HR MAX TEMP:  70; 6HR PCP:  0.17;

HULETT         MOCLDY    63  52  67 SE3       29.96S
NEWCASTLE      FAIR      61  45  55 SE13      29.97S

$$
WYZ014>020-022>026-101>103-270100-
CENTRAL WYOMING

CITY           SKY/WX    TMP DP  RH WIND       PRES   REMARKS
BIG PINEY      LGT RAIN  49  44  83 N13       30.08R
6HR MIN TEMP:  49; 6HR MAX TEMP:  59; 6HR PCP: TRACE;

PINEDALE       CLOUDY    50  43  76 N9        30.09S
DUBOIS         CLOUDY    50  37  62 W16       30.05F
LANDER         FAIR      64  46  52 NE10      29.95F
6HR MIN TEMP:  57; 6HR MAX TEMP:  65; 6HR PCP: TRACE;

RIVERTON       PTSUNNY   63  46  54 NW10      29.97R
6HR MIN TEMP:  62; 6HR MAX TEMP:  68;

CASPER         FAIR      67  44  43 N8        29.94F
6HR MIN TEMP:  60; 6HR MAX TEMP:  70; 6HR PCP: TRACE;

DOUGLAS        FAIR      68  44  42 SE6       29.95F
6HR MIN TEMP:  63; 6HR MAX TEMP:  69;


$$
WYZ021-027>030-104>119-270100-
SOUTHERN WYOMING

CITY           SKY/WX    TMP DP  RH WIND       PRES   REMARKS
EVANSTON       PTSUNNY   51  46  83 W16       30.09S
6HR MIN TEMP:  45; 6HR MAX TEMP:  54; 6HR PCP:  0.24;

KEMMERER       CLOUDY    57  39  51 W15G22    30.08S
FORT BRIDGER   MOCLDY    57  45  62 W18G28    30.11S
ROCK SPRINGS   LGT RAIN  49  44  83 SW9       30.07S
6HR MIN TEMP:  49; 6HR MAX TEMP:  62; 6HR PCP:  0.01;

DIXON          FAIR      58  41  52 SW7       30.08F
RAWLINS        PTSUNNY   60  40  47 W8        30.04S
6HR MIN TEMP:  55; 6HR MAX TEMP:  64; 6HR PCP: TRACE;

SARATOGA       MOCLDY    57  41  54 SW15G21   30.09R
LARAMIE        LGT RAIN  56  38  50 SW15      30.07S
6HR MIN TEMP:  56; 6HR MAX TEMP:  62; 6HR PCP: TRACE;

CHEYENNE       PTSUNNY   60  41  49 S12       30.05S
6HR MIN TEMP:  50; 6HR MAX TEMP:  64; 6HR PCP:  0.29;

TORRINGTON     FAIR      68  50  52 SE14      29.95S
6HR MIN TEMP:  63; 6HR MAX TEMP:  70;

PINE BLUFFS    FAIR      63  45  51 S8        30.03S

$$


USA.gov is the U.S. government's official web portal to all federal, state and local government web resources and services.